Weather History for Evansville, IN

Change the Weather History Date:

Thursday, August 1, 2013

  Actual Average Record
Temperature  
Mean Temperature 76 °F 78 °F  
Max Temperature 86 °F 88 °F 100 °F (1935)
Min Temperature 66 °F 67 °F 54 °F (1971)
Degree Days  
Heating Degree Days 0 0  
Month to date heating degree days 0  
Since 1 June heating degree days 6  
Since 1 July heating degree days 0  
Cooling Degree Days 11 13  
Month to date cooling degree days 13  
Year to date cooling degree days 849  
Since 1 June cooling degree days 714  
Growing Degree Days 26 (Base 50)    
Moisture  
Dew Point 65 °F    
Average Humidity 72    
Maximum Humidity 93    
Minimum Humidity 35    
Precipitation  
Precipitation 0.00 in 0.10 in 1.99 in (1934)
Month to date precipitation 0.00 0.10  
Year to date precipitation 33.69 28.04  
Snow  
Snow 0.00 in 0.00 in 0.00 in (2002)
Month to date snowfall 0.0  
Since 1 June snowfall 0.0  
Since 1 July snowfall 0.0  
Snow Depth -    
Sea Level Pressure  
Sea Level Pressure 30.01 in    
Wind  
Wind Speed 4 mph (NW)    
Max Wind Speed 12 mph    
Max Gust Speed 16 mph    
Visibility 9 miles    
Events      
T = Trace of Precipitation, MM = Missing Value Source: NWS Daily Summary

Daily Weather History Graph

Daily Weather History Graph

Search for Another Location

Airport:

Trip Planner

Search our weather history database for the weather conditions in past years. The results will help you decide how hot, cold, wet, or windy it might be!

Date:

Astronomy

Aug. 01, 2013 Rise Set
Actual Time 5:53 AM CDT 7:59 PM CDT
Civil Twilight 5:23 AM CDT 8:28 PM CDT
Nautical Twilight 4:48 AM CDT 9:03 PM CDT
Astronomical Twilight 4:09 AM CDT 9:42 PM CDT
Moon 1:29 AM CDT (8/1) 4:06 PM CDT (8/1)
Length of Visible Light 15h 04m
Length of Day
14h 05m
Waning Crescent, 23% of the Moon is Illuminated
Aug 1
Waning Crescent
Aug 6
New
Aug 14
First Quarter
Aug 20
Full
Aug 28
Last Quarter

Hourly Weather History & Observations

Time (CDT) Temp. Heat Index Dew Point Humidity Pressure Visibility Wind Dir Wind Speed Gust Speed Precip Events Conditions
12:54 AM 72.0 °F - 69.1 °F 91% 29.99 in 8.0 mi Calm Calm - N/A   Clear
1:54 AM 71.1 °F - 68.0 °F 90% 29.98 in 8.0 mi WNW 3.5 mph - N/A   Scattered Clouds
2:08 AM 71.6 °F - 68.0 °F 88% 29.99 in 8.0 mi WNW 4.6 mph - N/A   Mostly Cloudy
2:22 AM 71.6 °F - 68.0 °F 88% 29.99 in 8.0 mi NW 4.6 mph - N/A   Overcast
2:54 AM 71.1 °F - 68.0 °F 90% 29.98 in 7.0 mi NW 4.6 mph - N/A   Overcast
3:54 AM 70.0 °F - 68.0 °F 93% 29.98 in 6.0 mi NW 6.9 mph - N/A   Clear
4:23 AM 69.8 °F - 66.2 °F 88% 29.99 in 6.0 mi NW 6.9 mph - N/A   Partly Cloudy
4:54 AM 69.1 °F - 66.9 °F 93% 29.99 in 6.0 mi NNW 6.9 mph - N/A   Clear
5:54 AM 68.0 °F - 66.0 °F 93% 30.01 in 5.0 mi NNW 4.6 mph - N/A   Clear
6:54 AM 69.1 °F - 66.0 °F 90% 30.02 in 5.0 mi Calm Calm - N/A   Clear
7:54 AM 72.0 °F - 66.9 °F 84% 30.03 in 9.0 mi NNW 4.6 mph - N/A   Clear
8:54 AM 73.9 °F - 66.9 °F 79% 30.04 in 10.0 mi NNW 6.9 mph - N/A   Scattered Clouds
9:54 AM 77.0 °F - 66.9 °F 71% 30.05 in 10.0 mi NW 6.9 mph - N/A   Clear
10:54 AM 78.1 °F - 68.0 °F 71% 30.04 in 10.0 mi NNW 5.8 mph - N/A   Mostly Cloudy
11:01 AM 78.8 °F - 68.0 °F 69% 30.06 in 10.0 mi WNW 5.8 mph - N/A   Scattered Clouds
11:54 AM 80.1 °F 82.1 °F 66.0 °F 62% 30.04 in 10.0 mi NNW 4.6 mph - N/A   Mostly Cloudy
12:01 PM 82.4 °F 84.6 °F 66.2 °F 58% 30.05 in 10.0 mi NNW 6.9 mph - N/A   Scattered Clouds
12:54 PM 82.9 °F 84.6 °F 64.9 °F 54% 30.04 in 10.0 mi NW 6.9 mph - N/A   Partly Cloudy
1:54 PM 84.9 °F 86.1 °F 64.0 °F 49% 30.03 in 10.0 mi NW 11.5 mph 16.1 mph N/A   Partly Cloudy
2:54 PM 86.0 °F 86.8 °F 63.0 °F 46% 30.01 in 10.0 mi NNW 8.1 mph - N/A   Scattered Clouds
3:54 PM 86.0 °F 86.3 °F 62.1 °F 44% 30.01 in 10.0 mi NW 8.1 mph - N/A   Scattered Clouds
4:54 PM 84.9 °F 84.4 °F 59.0 °F 41% 30.01 in 10.0 mi NW 9.2 mph - N/A   Partly Cloudy
5:54 PM 84.0 °F 84.0 °F 60.1 °F 44% 29.99 in 10.0 mi NNW 4.6 mph - N/A   Clear
6:54 PM 82.0 °F 82.1 °F 59.0 °F 45% 29.99 in 10.0 mi NW 4.6 mph - N/A   Clear
7:54 PM 77.0 °F - 62.1 °F 60% 29.99 in 10.0 mi Calm Calm - N/A   Clear
8:54 PM 72.0 °F - 63.0 °F 73% 30.00 in 10.0 mi Calm Calm - N/A   Clear
9:54 PM 69.1 °F - 63.0 °F 81% 30.01 in 10.0 mi Calm Calm - N/A   Clear
10:54 PM 66.9 °F - 63.0 °F 87% 30.00 in 10.0 mi Calm Calm - N/A   Clear
11:54 PM 66.9 °F - 64.0 °F 90% 30.01 in 10.0 mi Calm Calm - N/A   Clear